FOR A COPY OF THE PAYOUT IN A PDF FILE: CLICK HERE

California State Race - SHASTA CITY
https://www.google.com/images/cleardot.gifhttps://www.google.com/images/cleardot.gifhttps://www.google.com/images/cleardot.gif
Station: SHASTA CITY - A Race
Weather Release:    Arrival: PARTLY COULDY Lofts: 75
Distance: 239.04 Miles      Wind at Release: CALM     Wind at Arrival: CALM Birds: 127
  Temp at Release: 45    Temp at Arrival: 67 Clocked: 85
Release: 19-Oct-2019 11:00    
 
Good Luck to Everyone!
Drops Pos Breeder Pigeon Color Sex Ent Arrival Speed To Win Elg
$3,876 1 Old West Enders - CA 9347-AU19-GSF BB C 1 16:13:22 1342.538 0:00:00 Yes
$3,876 2 Bieche & Lee - CA 9331-AU19-BIEC BC H 1 16:13:23 1342.452 0:00:01 Yes
$3,876 3 Mihaela Chelaru - CA 0101-AU19-BPRC DC C 1 16:13:24 1342.410 0:00:02 Yes
$3,876 4 Duane Gragg - CA 0997-AU19-KEY BC H 1 16:13:25 1342.310 0:00:03 Yes
    - 1-DROP       16:13:24 1341.310    
$973 5 Chelaru Family Loft - CA 0116-AU19-BPRC BC H 1 16:15:22 1334.031 0:02:00 Yes
$973 6 Mathews Brothers - CA 0203-AU19-MATH RGRZ H 1 16:15:23 1333.946 0:02:01 Yes
$973 7 Steve Pereira - CA 2429-AU19-GSF MLY H 1 16:15:27 1333.714 0:02:04 Yes
$973 8 Marco Parra - CA 1004-AU19-TULE RCPD H 1 16:15:31 1333.404 0:02:09 Yes
$973 9 Laszlo Zugor - CA 5303-AU19-SRP BC H 1 16:15:48 1332.215 0:02:26 Yes
    - 2-DROP       16:15:46 1331.215    
$973 10 John Hedderson - CA 9311-AU19-GSF BB C 1 16:21:58 1306.692 0:08:36 Yes
$973 11 Duane Gragg - CA 0933-AU19-KEY BB H 2 16:21:59 1306.617 0:08:37 Yes
$973 12 Ron Heiser - CA 0965-AU19-ARPU BC H 1 16:22:00 1306.536 0:08:38 Yes
$973 13 Master One - CA 9225-AU19-COOK LTCK H 1 16:23:15 1301.484 0:09:53 Yes
$973 14 Denis Eastwood - CA 0127-AU19-HANG BB H 1 16:23:17 1301.370 0:09:55 Yes
$973 15 Dan Severns - CA 80741-AU19-MAN BC H 1 16:23:19 1301.249 0:09:57 Yes
$973 16 Jim Cain - CA 6516-AU19-FSC BB H 1 16:24:45 1295.479 0:11:23 Yes
$973 17 C.J. Watkins - CA 1836-AU19-PASO BB C 1 16:24:59 1294.582 0:11:37 Yes
$973 18 Prout's Loft - CA 12579-AU19-ARPU BB H 1 16:25:04 1294.244 0:11:42 Yes
$973 19 Darryl Coston - CA 1842-AU19-ARPU BC H 1 16:26:32 1288.384 0:13:10 Yes
$973 20 Minerva Fernandez - CA 9229-AU19-COOK BB H 1 16:29:21 1277.418 0:15:58 Yes
$973 21 Joe Jauhal - CA 0132-AU19-WSJ BC C 1 16:29:43 1275.971 0:16:21 Yes
$973 22 John Partridge - CA 1648-AU19-PASO BC H 1 16:29:57 1275.056 0:16:35 Yes
$973 23 Gold Star Loft - CA 1671-AU19-STON BB H 1 16:30:00 1274.863 0:16:38 Yes
$973 24 Armando De La O - CA 9117-AU19-COOK LTCK H 1 16:30:02 1274.766 0:16:40 Yes
$973 25 Humberto Saenz - CA 9054-AU19-CGR BCSP H 1 16:30:03 1274.689 0:16:41 Yes
$973 26 Robert Lin - CA 19078-AU19-SVS DC H 1 16:30:22 1273.442 0:17:00 Yes
$229 27 John Hedderson - CA 9304-AU19-GSF BC C 2 16:31:54 1267.559 0:18:32 Yes
$229 28 Frank Meder - CA 19044-AU19-TBW MLY H 1 16:31:55 1267.527 0:18:33 Yes
$229 29 Silicon Valley Syndicates - CA 19079-AU19-SVS BBWF H 1 16:31:56 1267.482 0:18:33 Yes
$229 30 C.J. Watkins - CA 1826-AU19-PASO DC H 2 16:31:57 1267.419 0:18:34 Yes
$229 31 John Partridge - CA 9265-AU19-GSF BB C 2 16:31:58 1267.361 0:18:35 Yes
$229 32 Sal Perez - CA 0088-AU19-SFR BCWF H 1 16:31:58 1267.349 0:18:35 Yes
$229 33 Stanton Woody - CA 80510-AU19-MAN BB H 1 16:31:58 1267.330 0:18:36 Yes
$229 34 Prout's Loft - CA 9345-AU19-GSF BB C 2 16:31:59 1267.234 0:18:37 Yes
$229 35 Jim Vander Heide - CA 0131-AU19-OCF BCTK H 1 16:32:00 1267.215 0:18:38 Yes
$229 36 Larry Cook - CA 2559-AU19-LCOO BB H 1 16:32:00 1267.177 0:18:38 Yes
$229 37 Richard Norgrove - CA 90866-AU19-SOC BC H 1 16:32:01 1267.145 0:18:39 Yes
$229 38 Bieche & Lee - CA 9258-AU19-BIEC BB H 2 16:32:02 1267.088 0:18:40 Yes
$229 39 Avelino Loft - CA 0379-AU19-HAN BBWF H 1 16:32:04 1266.922 0:18:42 Yes
$229 40 John Karnofel - CA 0008-AU19-KFL BC H 1 16:32:05 1266.872 0:18:43 Yes
$229 41 Trina Dewitt - CA 1827-AU19-PASO DC C 1 16:32:06 1266.833 0:18:44 Yes
$229 42 Andrew Broster - CA 3740-AU19-ARC BB H 1 16:32:06 1266.808 0:18:44 Yes
$229 43 De Vriend Lofts - CA 5773-AU19-FSC BC H 1 16:32:08 1266.687 0:18:46 Yes
  44 Steve Sterchi - CA 1919-AU19-SR BB H 1 16:32:51 1263.966 0:19:29 Yes
  45 Christian Gluck - CA 0779-AU19-SD BC H 1 16:32:52 1263.884 0:19:30 Yes
  46 Zack Jones - CA 1956-AU19-MTZ BC H 1 16:32:54 1263.764 0:19:32 Yes
  47 Richard Norgrove - CA 9258-AU19-GSF BCPD H 2 16:32:55 1263.732 0:19:33 Yes
  48 Gary Robins - CA 0120-AU19-OCF DC 0 1 16:32:56 1263.656 0:19:34 Yes
  49 Vidal Gonzalez - CA 9262-AU19-GSF RC C 1 16:32:56 1263.650 0:19:34 Yes
  50 Richard Norgrove - CA 90875-AU19-SOC BC C 3 16:33:01 1263.359 0:19:38 Yes
  51 Steve Hendricks - CA 3801-AU19-ARC BB H 1 16:33:02 1263.258 0:19:40 Yes
  52 Mathews Brothers - CA 9316-AU19-GSF BBWF H 2 16:33:08 1262.910 0:19:46 Yes
  53 Wessel Family Lofts - CA 3027-AU19-ARC BB H 1 16:33:15 1262.417 0:19:53 Yes
  54 Padilla - CA 0729-AU19-SFPC BB C 1 16:33:33 1261.314 0:20:11 Yes
  55 Pat Siino - CA 9126-AU19-COOK BB H 1 16:34:31 1257.694 0:21:08 Yes
  56 Armando De La O - CA 9111-AU19-COOK BB H 2 16:34:44 1256.867 0:21:22 Yes
  57 Robert Lin - CA 19084-AU19-SVS DCPD H 2 16:35:07 1255.429 0:21:45 Yes
  58 Jim Vander Heide - CA 0129-AU19-OCF BC C 2 16:35:11 1255.192 0:21:48 Yes
  59 Fernando Gonzalez - CA 1959-AU19-MTZ BC C 1 16:36:14 1251.260 0:22:52 Yes
  60 Wessel Family Lofts - CA 3029-AU19-ARC BB H 2 16:36:16 1251.130 0:22:54 Yes
  61 De Vriend Lofts - CA 5768-AU19-FSC BBPH H 2 16:36:22 1250.770 0:23:00 Yes
  62 Barbara Shulman - CA 2557-AU19-WSJ DC H 1 16:52:30 1193.507 0:39:08 Yes
  63 Master One - CA 9228-AU19-COOK BB H 2 17:02:44 1159.809 0:49:22 Yes
  64 Ted Little - CA 2652-AU19-ARPU BCWF H 1 17:13:39 1125.965 1:00:16 Yes
  65 Sal Perez - CA 14062-AU19-AA BC H 2 17:13:40 1125.925 1:00:17 Yes
  66 John Partridge - CA 9339-AU19-GSF BC C 3 17:13:42 1125.789 1:00:20 Yes
  67 Jim Edgeworth - CA 2739-AU19-ARPU BB C 1 17:13:43 1125.774 1:00:20 Yes
  68 Osty Loft - CA 4583-AU19-JEDD BB C 1 17:17:36 1114.196 1:04:13 Yes
  69 Dan Severns - CA 80739-AU19-MAN BB H 2 17:21:55 1101.598 1:08:32 Yes
  70 Silicon Valley Syndicates - CA 19075-AU19-SVS BB C 2 17:32:31 1071.848 1:19:08 Yes
  71 Fred Belus - CA 0249-AU19-BPRC BC H 1 17:32:32 1071.803 1:19:09 Yes
  72 Steve Paine - CA 0444-AU19-HOP BC 1 1 17:32:37 1071.571 1:19:14 Yes
  73 Samuel Gomez - CA 5665-AU19-JEDD BBWF H 1 17:32:40 1071.430 1:19:18 Yes
  74 Padilla - CA 0728-AU19-SFPC BB H 2 17:40:20 1050.898 1:26:58 Yes
  75 Pat Siino - CA 9118-AU19-COOK LTCK H 2 17:55:00 1013.778 1:41:37 Yes
  76 Andrew Broster - CA 3739-AU19-ARC BB H 2 17:55:16 1013.099 1:41:54 Yes
  77 Dr. Kelly - CA 3327-AU19-ARC BBSP H 1 18:07:30 984.100 1:54:08 Yes
  78 Mike Gonigan - CA 80309-AU19-MAN BB H 1 18:13:20 970.868 1:59:58 Yes
  79 Mike Gonigan - CA 80305-AU19-MAN BB H 2 18:13:44 969.969 2:00:22 Yes
  80 Pat Siino - CA 9248-AU19-COOK BC C 3 18:17:21 961.944 2:03:59 Yes
  81 Frank Meder - CA 19046-AU19-TBW MLY C 2 18:25:22 944.651 2:11:59 Yes
  82 Mike Belus - CA 9355-AU19-GSF BC H 1 18:36:00 922.605 2:22:38 Yes
  83 Perez-Lafauci - CA 0084-AU19-SFR BC C 1 18:49:04 896.914 2:35:42 Yes
  84 Mike Belus - CA 9276-AU19-GSF BC C 2 7:38:27 806.127 3:28:31 Yes
  85 Gudino Loft - CA 3078-AU19-GSF BCPD C 1 8:08:31 762.236 3:58:34 Yes
  86 Partridge Family Loft - CA 1763-AU19-PASO BB C 1 8:11:00 758.804 4:01:04 Yes
  87 Sal Perez - CA 0086-AU19-SFR DC H 3 8:17:58 749.399 4:08:02 Yes
  88 Joyce Stierlin - CA 19255-AU19-A BB C 1 8:32:53 730.006 4:22:57 Yes
  89 Robert Lin - CA 19064-AU19-SVS BCWF C 3 8:36:59 724.839 4:27:03 Yes
  90 Lopez/Saenz - CA 9092-AU19-CGR BB C 1 8:42:49 717.625 4:32:53 Yes
  91 Armando Vasquez - CA 0004-AU19-WSJ BB C 1 8:51:33 707.089 4:41:37 Yes
  92 Van Gruen Loft - CA 1942-AU19-VANG BC H 1 9:06:31 689.749 4:56:35 Yes
  93 Humberto Saenz - CA 9057-AU19-CGR BB H 2 9:06:54 689.306 4:56:58 Yes
  94 Frank Meder - CA 19040-AU19-TBW BCWF C 3 9:21:35 673.120 5:11:39 Yes
  95 Hung-Wen Hung - CA 19081-AU19-SVS BB C 1 9:37:18 656.607 5:27:22 Yes
  96 Silicon Valley Syndicates - CA 19070-AU19-SVS BB H 3 9:51:10 642.691 5:41:14 Yes
  97 Stanton Woody - CA 80509-AU19-MAN BC H 2 10:01:34 632.640 5:51:38 Yes
  98 Jim Vander Heide - CA 9272-AU19-GSF BC C 3 10:27:36 608.810 6:17:40 Yes
  99 Dan Severns - CA 80736-AU19-MAN BB H 3 10:48:42 590.770 6:38:46 Yes
  100 Laszlo Zugor - CA 5304-AU19-SRP BC H 2 10:53:07 587.138 6:43:11 Yes
  101 Jenkins Racing - CA 0760-AU19-JENK BC C 1 11:18:08 567.329 7:08:12 Yes
  102 Jim Herbaugh - CA 3000-AU19-ARPU BB C 1 12:38:23 511.929 8:28:27 Yes
  103 Barbara Shulman - CA 2552-AU19-WSJ BC H 2 12:45:40 507.426 8:35:44 Yes
  104 Chelaru Family Loft - CA 0127-AU19-BPRC BBWF C 2 15:50:31 414.920 11:40:35 Yes
  105 Sal Perez - CA 0064-AU19-SFR BC C 4 15:54:49 413.170 11:44:53 Yes
  106 Silicon Valley Syndicates - CA 19065-AU19-SVS BBWF C 4 17:23:40 380.010 13:13:44 Yes
  107 Gary Robins - CA 9254-AU19-GSF BC C 2 7:56:19 333.655 15:47:33 Yes
  108 Bob Bostwick - CA 0933-AU19-COCO BBWF H 1 8:04:29 331.510 15:55:42 Yes
  109 Jeff Decker - CA 1923-AU19-JTD BB 1 1 11:08:10 193.727 30:58:18 Yes
  110 Bieche & Lee - CA 9292-AU19-BIEC BB H   00:00.0 0   Yes
  111 Dino D'ercole - CA 0506-AU19-SFR BB H   00:00.0 0   Yes
  112 Andrew Broster - CA 3744-AU19-ARC BB H   00:00.0 0   Yes
  113 Mihaela Chelaru - CA 0104-AU19-BPRC SIL C   00:00.0 0   Yes
  114 Sam Ochoa - CA 39676-AU19-AA BB 1   00:00.0 0   Yes
  115 Gary Robins - CA 0005-AU19-OCF BC 0   00:00.0 0   Yes
  116 Marshall Jespersen - CA 3205-AU19-ARC BB C   00:00.0 0   Yes
  117 Grover Todd - CA 5004-AU19-FSC BB C   00:00.0 0   Yes
  118 Dino D'ercole - CA 0507-AU19-SFR BB C   00:00.0 0   Yes
  119 Padilla - CA 1682-AU19-MTZ BB H   00:00.0 0   Yes
  120 Gold Star Loft - CA 1649-AU19-STON BB C   00:00.0 0   Yes
  121 Lopez/Saenz - CA 1305-AU19-TCH BB H   00:00.0 0   Yes
  122 Armando Lopez - CA 1246-AU19-CHP BC C   00:00.0 0   Yes
  123 Gomez Loft - CA 1092-AU19-CHP BCSP H   00:00.0 0   Yes
  124 Jim Cain - CA 6529-AU19-FSC BC H   00:00.0 0   Yes
  125 Jim Looper - CA 1039-AU19-LOOP BB C   00:00.0 0   Yes
  126 Joyce Stierlin - CA 19256-AU19-A BBSP H   00:00.0 0   Yes